CW0962 Weather Reports


Display with metric or nautical units.
time (UTC)temp
F
wind
direction
speed
MPH
gust
MPH
rain 1hr
in
rain 24hr
in
rain mn
in
humidity
%
barometer
mb
20260503043503 49 205 0.0 1.0 0.02 0.15 0.01 91 1007.5
20260503042512 49 205 0.0 0.0 0.02 0.15 0.01 91 1007.7
20260503041514 49 205 0.0 0.0 0.02 0.14 0.00 91 1007.9
20260503041005 49 205 0.0 0.0 0.02 0.14 0.00 91 1007.9
20260503040504 49 205 0.0 0.0 0.02 0.14 0.00 91 1007.9
20260503040006 49 205 0.0 0.0 0.02 0.14 0.00 91 1008.0
20260503035504 49 205 0.0 0.0 0.01 0.13 0.13 91 1007.9
20260503035005 49 205 0.0 0.0 0.01 0.13 0.13 90 1007.8
20260503034004 49 205 0.0 1.0 0.02 0.13 0.13 91 1007.8
20260503033503 49 205 0.0 1.0 0.02 0.13 0.13 91 1007.7
20260503033004 49 205 0.0 4.0 0.02 0.13 0.13 90 1007.8
20260503032502 49 205 0.0 4.0 0.02 0.13 0.13 90 1007.9
20260503031500 49 150 0.0 2.0 0.02 0.12 0.12 90 1008.1
20260503031044 49 148 1.0 5.0 0.02 0.12 0.12 90 1008.1
20260503030504 49 145 1.0 5.0 0.02 0.12 0.12 90 1008.0
20260503030013 49 132 1.0 4.0 0.03 0.12 0.12 90 1008.0
20260503025521 49 161 1.0 4.0 0.03 0.12 0.12 90 1008.0
20260503025025 49 161 1.0 5.0 0.03 0.12 0.12 90 1008.2
20260503024515 49 155 1.0 5.0 0.03 0.12 0.12 90 1008.1
20260503023505 49 161 1.0 6.0 0.02 0.11 0.11 90 1008.3
20260503022502 49 162 1.0 5.0 0.02 0.11 0.11 90 1008.2
20260503022035 49 172 1.0 6.0 0.02 0.11 0.11 90 1008.3
20260503021503 49 127 1.0 6.0 0.01 0.10 0.10 90 1008.3
20260503020505 49 162 2.0 6.0 0.02 0.10 0.10 90 1008.4
20260503020018 49 161 1.0 5.0 0.01 0.09 0.09 90 1008.5
20260503015511 49 155 1.0 5.0 0.02 0.09 0.09 90 1008.5
20260503015002 49 170 1.0 4.0 0.02 0.09 0.09 90 1008.5
20260503014511 49 142 1.0 5.0 0.03 0.09 0.09 89 1008.5
20260503014002 49 145 1.0 5.0 0.03 0.09 0.09 90 1008.6
20260503013502 49 206 0.0 2.0 0.04 0.09 0.09 89 1008.6
20260503013002 49 206 1.0 4.0 0.05 0.09 0.09 89 1008.6
20260503011523 49 202 2.0 7.0 0.07 0.08 0.08 89 1008.8
20260503011007 49 171 2.0 6.0 0.07 0.08 0.08 89 1008.7
20260503010502 49 200 2.0 6.0 0.08 0.08 0.08 89 1008.9
20260503010004 49 200 1.0 5.0 0.08 0.08 0.08 88 1008.6
20260503005505 49 214 1.0 5.0 0.07 0.07 0.07 88 1008.7
20260503004002 50 178 1.0 6.0 0.06 0.06 0.06 88 1008.8
20260503003509 50 172 2.0 6.0 0.05 0.05 0.05 88 1008.7
20260503003027 50 202 2.0 6.0 0.04 0.04 0.04 87 1008.8
20260503002501 50 163 2.0 7.0 0.03 0.03 0.03 87 1008.8
20260503001511 50 168 5.0 9.0 0.01 0.01 0.01 86 1009.0
20260503001012 50 147 4.0 9.0 0.01 0.01 0.01 86 1008.9
20260503000512 50 139 4.0 9.0 0.00 0.00 0.00 85 1009.0
20260503000011 51 182 3.0 6.0 0.00 0.00 0.00 85 1008.8
20260502235504 51 149 2.0 5.0 0.00 0.00 0.00 85 1008.7
20260502234519 51 184 1.0 5.0 0.00 0.00 0.00 84 1008.7
20260502234009 51 184 1.0 5.0 0.00 0.00 0.00 84 1008.6
20260502233512 51 215 2.0 5.0 0.00 0.00 0.00 83 1008.6
20260502233004 51 200 2.0 5.0 0.00 0.00 0.00 83 1008.6
20260502232003 51 167 3.0 9.0 0.00 0.00 0.00 82 1008.8
20260502231503 51 159 2.0 9.0 0.00 0.00 0.00 81 1008.7
20260502231001 52 203 3.0 9.0 0.00 0.00 0.00 80 1008.5
20260502230504 52 140 4.0 9.0 0.00 0.00 0.00 79 1008.6
20260502230004 52 138 5.0 10.0 0.00 0.00 0.00 78 1008.5
20260502225503 52 144 5.0 10.0 0.00 0.00 0.00 77 1008.5
20260502225035 52 173 4.0 10.0 0.00 0.00 0.00 76 1008.5
20260502224515 52 165 4.0 11.0 0.00 0.00 0.00 76 1008.4
20260502224004 52 136 5.0 11.0 0.00 0.00 0.00 75 1008.2
20260502223506 53 184 6.0 11.0 0.00 0.00 0.00 75 1008.1
20260502223009 53 148 5.0 10.0 0.00 0.00 0.00 75 1008.1
20260502222518 53 143 4.0 9.0 0.00 0.00 0.00 74 1008.2
20260502222004 53 163 4.0 9.0 0.00 0.00 0.00 74 1008.3
20260502220511 53 158 4.0 8.0 0.00 0.00 0.00 73 1008.2
20260502220008 53 186 5.0 8.0 0.00 0.00 0.00 73 1008.3
20260502215504 53 177 5.0 10.0 0.00 0.00 0.00 72 1008.3
20260502215003 54 188 5.0 10.0 0.00 0.00 0.00 72 1008.3
20260502214042 54 184 4.0 8.0 0.00 0.00 0.00 71 1008.4
20260502213523 54 148 3.0 8.0 0.00 0.00 0.00 71 1008.5
20260502212000 54 151 4.0 10.0 0.00 0.00 0.00 71 1008.5
20260502211510 54 173 5.0 10.0 0.00 0.00 0.00 71 1008.5
20260502211009 54 155 5.0 10.0 0.00 0.00 0.00 71 1008.6
20260502210011 54 212 6.0 13.0 0.00 0.00 0.00 69 1008.7
20260502205500 54 184 6.0 12.0 0.00 0.00 0.00 68 1008.7
20260502205028 55 126 5.0 12.0 0.00 0.00 0.00 68 1008.6
20260502204500 54 165 6.0 12.0 0.00 0.00 0.00 69 1008.6
20260502204029 54 178 7.0 13.0 0.00 0.00 0.00 68 1008.7
20260502203500 54 171 7.0 14.0 0.00 0.00 0.00 68 1008.7
20260502203007 54 189 7.0 14.0 0.00 0.00 0.00 67 1008.8
20260502202505 55 184 7.0 12.0 0.00 0.00 0.00 66 1008.7
20260502202005 55 151 7.0 14.0 0.00 0.00 0.00 65 1008.8
20260502201503 55 178 6.0 14.0 0.00 0.00 0.00 65 1008.8
20260502201049 55 142 5.0 13.0 0.00 0.00 0.00 64 1008.8
20260502200505 55 183 7.0 16.0 0.00 0.00 0.00 65 1008.9
20260502200005 55 191 7.0 16.0 0.00 0.00 0.00 63 1009.0
20260502195504 55 142 6.0 16.0 0.00 0.00 0.00 65 1008.9
20260502195003 55 177 7.0 19.0 0.00 0.00 0.00 64 1009.0
20260502194025 56 163 7.0 19.0 0.00 0.00 0.00 64 1009.1
20260502193502 56 135 8.0 19.0 0.00 0.00 0.00 65 1009.1
20260502193029 56 122 9.0 19.0 0.00 0.00 0.00 64 1009.1
20260502192526 56 165 10.0 19.0 0.00 0.00 0.00 63 1009.2
20260502192030 57 113 9.0 20.0 0.00 0.00 0.00 61 1009.2
20260502191512 57 119 9.0 20.0 0.00 0.00 0.00 60 1009.2
20260502191023 57 171 8.0 16.0 0.00 0.00 0.00 58 1009.2
20260502190507 57 121 8.0 20.0 0.00 0.00 0.00 57 1009.1
20260502190008 57 173 6.0 20.0 0.00 0.00 0.00 54 1009.3
20260502185508 58 165 6.0 11.0 0.00 0.00 0.00 50 1009.4
20260502185029 59 202 6.0 14.0 0.00 0.00 0.00 48 1009.5
20260502184501 58 147 6.0 14.0 0.00 0.00 0.00 49 1009.7
20260502183000 58 194 8.0 18.0 0.00 0.00 0.00 48 1009.7
20260502182525 58 184 6.0 14.0 0.00 0.00 0.00 45 1009.7
20260502182004 59 209 6.0 18.0 0.00 0.00 0.00 43 1009.7
20260502181003 59 143 7.0 20.0 0.00 0.00 0.00 47 1009.7
20260502180502 59 186 8.0 18.0 0.00 0.00 0.00 47 1009.9
20260502170501 58 144 5.0 12.0 0.00 0.00 0.00 53 1009.4
20260502164001 58 176 5.0 12.0 0.00 0.00 0.00 54 1009.7
20260502163515 58 192 6.0 16.0 0.00 0.00 0.00 56 1009.7
20260502163005 58 221 7.0 16.0 0.00 0.00 0.00 58 1009.8
20260502162501 59 128 7.0 12.0 0.00 0.00 0.00 57 1009.8
20260502162044 59 157 7.0 13.0 0.00 0.00 0.00 60 1009.7
20260502161505 57 146 7.0 13.0 0.00 0.00 0.00 64 1009.6
20260502161050 57 146 7.0 13.0 0.00 0.00 0.00 63 1009.7
20260502160501 58 201 7.0 13.0 0.00 0.00 0.00 64 1010.1
20260502152008 60 95 5.0 12.0 0.00 0.00 0.00 60 1010.3
20260502151515 59 107 5.0 12.0 0.00 0.00 0.00 61 1010.3
20260502151028 59 158 5.0 11.0 0.00 0.00 0.00 63 1010.4
20260502150535 58 227 7.0 11.0 0.00 0.00 0.00 61 1010.3
20260502130504 57 234 3.0 8.0 0.00 0.00 0.00 63 1010.7
20260502130109 56 182 4.0 7.0 0.00 0.00 0.00 63 1010.7
20260502123543 56 193 4.0 13.0 0.00 0.00 0.00 66 1010.5
20260502123024 56 212 5.0 11.0 0.00 0.00 0.00 65 1010.5
20260502122506 55 209 5.0 11.0 0.00 0.00 0.00 68 1010.4
20260502122020 54 217 4.0 11.0 0.00 0.00 0.00 69 1010.3
20260502121500 54 159 3.0 8.0 0.00 0.00 0.00 69 1010.4
20260502121029 54 172 3.0 10.0 0.00 0.00 0.00 69 1010.3
20260502120504 53 154 5.0 10.0 0.00 0.00 0.00 69 1010.2
20260502114507 52 169 5.0 10.0 0.00 0.00 0.00 72 1010.3
20260502114001 51 172 4.0 10.0 0.00 0.00 0.00 73 1010.4
20260502113506 50 157 4.0 9.0 0.00 0.00 0.00 74 1010.4
20260502112502 50 200 4.0 10.0 0.00 0.00 0.00 74 1010.4
20260502111509 49 187 4.0 12.0 0.00 0.00 0.00 76 1010.4
20260502111003 49 212 4.0 12.0 0.00 0.00 0.00 76 1010.6
20260502110459 49 244 3.0 7.0 0.00 0.00 0.00 76 1010.4
20260502105505 49 86 4.0 7.0 0.00 0.00 0.00 76 1010.3
20260502105025 48 165 3.0 7.0 0.00 0.00 0.00 77 1010.2
20260502104501 48 247 3.0 8.0 0.00 0.00 0.00 77 1010.2
20260502104015 48 166 3.0 8.0 0.00 0.00 0.00 78 1010.2
20260502103504 47 162 3.0 8.0 0.00 0.00 0.00 77 1010.1
20260502102003 47 147 3.0 8.0 0.00 0.00 0.00 76 1010.3
20260502101030 47 169 2.0 8.0 0.00 0.00 0.00 75 1010.2
20260502100509 46 173 3.0 8.0 0.00 0.00 0.00 75 1010.2
20260502091508 46 162 3.0 6.0 0.00 0.00 0.00 75 1009.9
20260502091004 45 153 2.0 6.0 0.00 0.00 0.00 75 1009.9
20260502090502 45 201 2.0 6.0 0.00 0.00 0.00 75 1010.0
20260502071004 44 195 1.0 2.0 0.00 0.00 0.00 80 1009.9
20260502070510 44 195 1.0 4.0 0.00 0.00 0.00 80 1009.8
20260502065504 44 196 1.0 4.0 0.00 0.00 0.00 81 1009.9
20260502064504 43 194 1.0 6.0 0.00 0.00 0.00 81 1010.0
20260502063528 43 206 1.0 2.0 0.00 0.00 0.00 82 1010.1
20260502063006 43 206 1.0 5.0 0.00 0.00 0.00 82 1010.1
20260502062500 44 206 2.0 6.0 0.00 0.00 0.00 81 1010.1
20260502062007 44 200 2.0 6.0 0.00 0.00 0.00 82 1010.0
20260502061523 43 204 2.0 5.0 0.00 0.00 0.00 83 1010.1
20260502060522 43 223 1.0 2.0 0.00 0.00 0.00 83 1010.0
20260502060006 43 223 1.0 2.0 0.00 0.00 0.00 83 1010.1
20260502055001 43 223 1.0 2.0 0.00 0.00 0.00 82 1010.1
20260502054506 43 223 1.0 2.0 0.00 0.00 0.00 82 1010.2
20260502054030 43 224 1.0 2.0 0.00 0.00 0.00 82 1010.1
20260502053505 43 224 1.0 2.0 0.00 0.00 0.00 82 1010.1
20260502053023 43 224 0.0 1.0 0.00 0.00 0.00 82 1010.2
20260502052501 43 224 0.0 1.0 0.00 0.00 0.00 81 1010.1
20260502052010 43 224 0.0 1.0 0.00 0.00 0.00 81 1010.2
20260502051508 43 224 0.0 1.0 0.00 0.00 0.00 81 1010.2
20260502050525 43 224 1.0 1.0 0.00 0.00 0.00 81 1010.2
20260502050120 43 224 0.0 1.0 0.00 0.00 0.00 81 1010.3
20260502045510 43 224 0.0 0.0 0.00 0.00 0.00 81 1010.2
20260502045007 43 224 0.0 1.0 0.00 0.00 0.00 81 1010.2
20260502044513 44 224 0.0 4.0 0.00 0.00 0.00 81 1010.3
20260502044004 44 224 1.0 4.0 0.00 0.00 0.00 80 1010.3
20260502043522 44 224 1.0 4.0 0.00 0.00 0.00 80 1010.2